• In Uzbekistan
  • List of Countries
  • For 7 days
  • Water Temperature
  • Weather Map
  • Weather Widgets
  • user-avatar
    Login

    Hourly Weather Pecs

    Today, 1 June, Monday

    Time Temperature Precipitation Wind Pressure Humidity
    00:00 +9°C° 0.1 mm 3 mps 743 mmHg 95%
    01:00 +10°C° 0 mm 3 mps 743 mmHg 98%
    02:00 +10°C° 0 mm 3 mps 743 mmHg 97%
    03:00 +10°C° 0 mm 2 mps 743 mmHg 97%
    04:00 +10°C° 0 mm 2 mps 742 mmHg 97%
    05:00 +12°C° 0 mm 2 mps 743 mmHg 95%
    06:00 +13°C° 0 mm 2 mps 743 mmHg 92%
    07:00 +13°C° 0 mm 2 mps 743 mmHg 92%
    08:00 +13°C° 0 mm 3 mps 744 mmHg 88%
    09:00 +14°C° 0 mm 3 mps 744 mmHg 84%
    10:00 +14°C° 0 mm 3 mps 744 mmHg 81%
    11:00 +17°C° 0.1 mm 3 mps 744 mmHg 72%
    12:00 +19°C° 0.1 mm 3 mps 744 mmHg 63%
    13:00 +21°C° 0 mm 3 mps 744 mmHg 58%
    14:00 +21°C° 0.1 mm 3 mps 743 mmHg 58%
    15:00 +21°C° 0.1 mm 3 mps 743 mmHg 58%
    16:00 +21°C° 0.1 mm 3 mps 742 mmHg 58%
    17:00 +19°C° 0.2 mm 3 mps 742 mmHg 66%
    18:00 +18°C° 0.2 mm 3 mps 742 mmHg 73%
    19:00 +16°C° 0.2 mm 2 mps 742 mmHg 81%
    20:00 +15°C° 0 mm 2 mps 742 mmHg 83%
    21:00 +13°C° 0 mm 3 mps 742 mmHg 85%
    22:00 +12°C° 0 mm 3 mps 742 mmHg 86%
    23:00 +11°C° 0 mm 3 mps 742 mmHg 87%

    Tomorrow, 2 June, Tuesday

    Time Temperature Precipitation Wind Pressure Humidity
    00:00 +11°C° 0 mm 3 mps 742 mmHg 88%
    01:00 +10°C° 0 mm 3 mps 742 mmHg 88%
    02:00 +10°C° 0 mm 3 mps 742 mmHg 90%
    03:00 +9°C° 0 mm 2 mps 742 mmHg 92%
    04:00 +9°C° 0 mm 2 mps 742 mmHg 94%
    05:00 +10°C° 0 mm 2 mps 742 mmHg 87%
    06:00 +11°C° 0 mm 3 mps 743 mmHg 81%
    07:00 +12°C° 0 mm 3 mps 743 mmHg 75%
    08:00 +14°C° 0 mm 3 mps 743 mmHg 69%
    09:00 +15°C° 0 mm 4 mps 743 mmHg 64%
    10:00 +18°C° 0 mm 4 mps 743 mmHg 58%
    11:00 +17°C° 0.4 mm 5 mps 742 mmHg 59%
    12:00 +17°C° 0.4 mm 5 mps 742 mmHg 60%
    13:00 +17°C° 0.4 mm 5 mps 742 mmHg 61%
    14:00 +17°C° 0.1 mm 5 mps 741 mmHg 59%
    15:00 +19°C° 0.1 mm 5 mps 741 mmHg 57%
    16:00 +19°C° 0.1 mm 5 mps 740 mmHg 54%
    17:00 +18°C° 0 mm 4 mps 740 mmHg 61%
    18:00 +16°C° 0 mm 3 mps 740 mmHg 67%
    19:00 +15°C° 0 mm 2 mps 740 mmHg 73%
    20:00 +14°C° 0 mm 2 mps 740 mmHg 75%
    21:00 +13°C° 0 mm 2 mps 740 mmHg 78%
    22:00 +11°C° 0 mm 1 mps 740 mmHg 80%
    23:00 +10°C° 0 mm 2 mps 740 mmHg 82%

    Day after tomorrow, 3 June, Wednesday

    Time Temperature Precipitation Wind Pressure Humidity
    00:00 +10°C° 0 mm 2 mps 740 mmHg 83%
    01:00 +9°C° 0 mm 2 mps 740 mmHg 85%
    02:00 +9°C° 0 mm 2 mps 739 mmHg 86%
    03:00 +9°C° 0 mm 2 mps 739 mmHg 88%
    04:00 +8°C° 0 mm 2 mps 739 mmHg 89%
    05:00 +10°C° 0 mm 2 mps 738 mmHg 85%
    06:00 +13°C° 0 mm 2 mps 738 mmHg 81%
    07:00 +14°C° 0 mm 2 mps 738 mmHg 78%
    08:00 +16°C° 0.1 mm 3 mps 738 mmHg 73%
    09:00 +18°C° 0.1 mm 3 mps 738 mmHg 69%
    10:00 +19°C° 0.1 mm 4 mps 738 mmHg 65%
    11:00 +20°C° 0.8 mm 4 mps 737 mmHg 65%
    12:00 +20°C° 0.8 mm 4 mps 737 mmHg 66%
    13:00 +21°C° 0.8 mm 3 mps 736 mmHg 66%
    14:00 +21°C° 0.5 mm 3 mps 736 mmHg 64%
    15:00 +21°C° 0.5 mm 2 mps 736 mmHg 62%
    16:00 +23°C° 0.5 mm 1 mps 736 mmHg 61%
    17:00 +21°C° 1.3 mm 1 mps 735 mmHg 70%
    18:00 +18°C° 1.3 mm 2 mps 735 mmHg 79%
    19:00 +16°C° 1.3 mm 2 mps 735 mmHg 88%
    20:00 +15°C° 1.1 mm 2 mps 735 mmHg 89%
    21:00 +15°C° 1.1 mm 2 mps 735 mmHg 89%
    22:00 +15°C° 1.1 mm 2 mps 735 mmHg 90%
    23:00 +14°C° 0.2 mm 2 mps 735 mmHg 91%

    4 June, Thursday

    Time Temperature Precipitation Wind Pressure Humidity
    00:00 +13°C° 0.2 mm 3 mps 735 mmHg 93%
    01:00 +12°C° 0.2 mm 3 mps 734 mmHg 94%
    02:00 +12°C° 0.1 mm 3 mps 734 mmHg 93%
    03:00 +13°C° 0.1 mm 2 mps 734 mmHg 93%
    04:00 +13°C° 0.1 mm 2 mps 733 mmHg 92%
    05:00 +13°C° 0.1 mm 3 mps 733 mmHg 88%
    06:00 +14°C° 0.1 mm 4 mps 733 mmHg 84%
    07:00 +17°C° 0.1 mm 4 mps 733 mmHg 80%
    08:00 +19°C° 0 mm 5 mps 733 mmHg 72%
    09:00 +20°C° 0 mm 6 mps 733 mmHg 64%
    10:00 +22°C° 0 mm 8 mps 734 mmHg 56%
    11:00 +23°C° 0 mm 7 mps 733 mmHg 55%
    12:00 +24°C° 0 mm 7 mps 733 mmHg 53%
    13:00 +26°C° 0 mm 7 mps 733 mmHg 52%
    14:00 +24°C° 0 mm 6 mps 733 mmHg 55%
    15:00 +25°C° 0 mm 5 mps 732 mmHg 57%
    16:00 +25°C° 0 mm 4 mps 732 mmHg 60%
    17:00 +22°C° 0.1 mm 4 mps 732 mmHg 63%
    18:00 +21°C° 0.1 mm 5 mps 732 mmHg 66%
    19:00 +19°C° 0.1 mm 5 mps 732 mmHg 69%
    20:00 +19°C° 0 mm 4 mps 731 mmHg 67%
    21:00 +18°C° 0 mm 3 mps 731 mmHg 65%
    22:00 +18°C° 0 mm 3 mps 731 mmHg 63%
    23:00 +17°C° 0 mm 3 mps 731 mmHg 64%

    5 June, Friday

    Time Temperature Precipitation Wind Pressure Humidity
    00:00 +16°C° 0 mm 3 mps 731 mmHg 66%
    01:00 +16°C° 0 mm 3 mps 730 mmHg 67%
    02:00 +14°C° 0.1 mm 3 mps 730 mmHg 71%
    03:00 +14°C° 0.1 mm 3 mps 730 mmHg 76%
    04:00 +14°C° 0.1 mm 3 mps 730 mmHg 81%
    05:00 +15°C° 0.2 mm 4 mps 729 mmHg 80%
    06:00 +17°C° 0.2 mm 4 mps 729 mmHg 80%
    07:00 +19°C° 0.2 mm 5 mps 729 mmHg 79%
    08:00 +20°C° 0.2 mm 5 mps 729 mmHg 77%
    09:00 +21°C° 0.2 mm 5 mps 729 mmHg 75%
    10:00 +21°C° 0.2 mm 5 mps 730 mmHg 73%
    11:00 +20°C° 2.3 mm 5 mps 729 mmHg 79%
    12:00 +17°C° 2.3 mm 5 mps 729 mmHg 86%
    13:00 +16°C° 2.3 mm 5 mps 729 mmHg 92%
    14:00 +17°C° 1.8 mm 4 mps 729 mmHg 90%
    15:00 +18°C° 1.8 mm 4 mps 730 mmHg 88%
    16:00 +18°C° 1.8 mm 4 mps 730 mmHg 86%
    17:00 +18°C° 1 mm 3 mps 730 mmHg 86%
    18:00 +17°C° 1 mm 3 mps 730 mmHg 87%
    19:00 +17°C° 1 mm 2 mps 730 mmHg 87%
    20:00 +14°C° 0.6 mm 3 mps 731 mmHg 90%
    21:00 +13°C° 0.6 mm 3 mps 731 mmHg 92%
    22:00 +12°C° 0.6 mm 4 mps 731 mmHg 94%
    23:00 +11°C° 0.5 mm 4 mps 731 mmHg 94%

    6 June, Saturday

    Time Temperature Precipitation Wind Pressure Humidity
    00:00 +11°C° 0.5 mm 3 mps 732 mmHg 94%
    01:00 +11°C° 0.5 mm 3 mps 732 mmHg 94%
    02:00 +10°C° 0.2 mm 3 mps 732 mmHg 94%
    03:00 +10°C° 0.2 mm 3 mps 733 mmHg 93%
    04:00 +10°C° 0.2 mm 4 mps 733 mmHg 93%
    05:00 +10°C° 0.2 mm 4 mps 734 mmHg 92%
    06:00 +10°C° 0.2 mm 4 mps 735 mmHg 91%
    07:00 +10°C° 0.2 mm 5 mps 736 mmHg 90%
    08:00 +13°C° 0 mm 5 mps 737 mmHg 79%
    09:00 +15°C° 0 mm 6 mps 737 mmHg 69%
    10:00 +17°C° 0 mm 7 mps 738 mmHg 58%
    11:00 +19°C° 0 mm 6 mps 738 mmHg 55%
    12:00 +19°C° 0 mm 6 mps 738 mmHg 53%
    13:00 +20°C° 0 mm 5 mps 738 mmHg 50%
    14:00 +20°C° 0 mm 4 mps 739 mmHg 50%
    15:00 +20°C° 0 mm 4 mps 739 mmHg 51%
    16:00 +20°C° 0 mm 3 mps 739 mmHg 51%
    17:00 +19°C° 0 mm 2 mps 739 mmHg 57%
    18:00 +18°C° 0 mm 2 mps 739 mmHg 62%
    19:00 +18°C° 0 mm 1 mps 739 mmHg 68%
    20:00 +15°C° 0 mm 1 mps 739 mmHg 69%
    21:00 +14°C° 0 mm 2 mps 740 mmHg 70%
    22:00 +13°C° 0 mm 2 mps 740 mmHg 72%
    23:00 +13°C° 0 mm 2 mps 740 mmHg 74%
    Show more